Regional Weather Roundup
Issued by NWS Bismarck, ND

Home | Current Version | Previous Version | Text Only | Print | Product List | Glossary On
Versions: 1 2 3 4 5 6 7 8 9 10 11 12 13 14 15 16 17 18 19 20 21 22 23 24 25 26 27 28 29 30 31 32 33 34 35 36 37 38 39 40 41 42 43 44 45 46 47 48 49 50
405
ASUS43 KBIS 021502
RWRBIS

NWR BROADCAST TEXT
NATIONAL WEATHER SERVICE BISMARCK ND
1000 AM CDT MON MAY 02 2016

NOTE: "FAIR" INDICATES FEW OR NO CLOUDS BELOW 12,000 FEET WITH NO
SIGNIFICANT WEATHER AND/OR OBSTRUCTIONS TO VISIBILITY.


CITY           SKY/WX    TMP DP  RH WIND       PRES   REMARKS
WILLISTON      SUNNY     64  37  36 NW15      30.03S
MINOT          MOSUNNY   62  37  39 NW9       29.96S
MINOT AFB      MOSUNNY   57  38  50 N10       29.96R
BISMARCK       LGT RAIN  48  44  86 S7        30.00F
DICKINSON      CLOUDY    56  35  45 W21G26    30.02F
GARRISON         N/A     60  40  47 NW14      29.97S
HETTINGER ARPT CLOUDY    57  35  43 W18       30.08F
JAMESTOWN      LGT RAIN  51  43  74 S8        30.04S
CARRINGTON     FAIR      54  37  54 SE9       30.04R
OAKES            N/A    N/A N/A N/A MISG        N/A
STANLEY        FAIR      59  36  41 N20       30.01R
$$

CITY           SKY/WX    TMP DP  RH WIND       PRES   REMARKS
GRAND FORKS    MOSUNNY   61  33  35 CALM      30.02S
GRAND FORKS AF MOSUNNY   61  33  35 NE7       30.01F
DEVILS LAKE    CLOUDY    55  37  50 SW6       30.02S
FARGO          SUNNY     59  33  37 S6        30.04F
CAVALIER       FAIR      61  36  39 N12       30.02F
GRAFTON        FAIR      61  36  39 VRB6      30.04S
GWINNER        FAIR      57  37  47 SW8       30.05F
LANGDON        FAIR      61  37  41 VRB3      30.02F
$$

CITY           SKY/WX    TMP DP  RH WIND       PRES   REMARKS
ABERDEEN       MOSUNNY   54  39  57 S7        30.07F
MOBRIDGE       CLOUDY    50  37  61 NW10      30.05R
BUFFALO          N/A     58  33  39 W22       30.03F
RAPID CITY     MOSUNNY   54  34  46 NW10      30.14S
GLASGOW        SUNNY     55  38  52 NW12      30.12S
SIDNEY         SUNNY     63  36  36 NW24      30.05F
WOLF POINT     SUNNY     59  41  51 W10       30.09F
GLENDIVE       SUNNY     61  36  39 NW22      30.11F
MILES CITY     SUNNY     50  37  61 SW6       30.15S
BAKER          SUNNY     56  34  43 NW15      30.12F
$$

CITY           SKY/WX    TMP DP  RH WIND       PRES   REMARKS
BILLINGS       MOSUNNY   46  35  65 SW12      30.20F
GREAT FALLS    SUNNY     50  36  58 SW6       30.20R
$$





USA.gov is the U.S. government's official web portal to all federal, state and local government web resources and services.